Regional Weather Roundup
Issued by NWS

Home | Current Version | Previous Version | Text Only | Print | Product List | Glossary On
Versions: 1 2 3 4 5 6 7 8 9 10 11 12 13 14 15 16 17 18 19 20 21 22 23 24 25 26 27 28 29 30 31 32 33 34 35 36 37 38 39 40 41 42 43 44 45 46 47 48 49 50
000
ASUS43 KLOT 270058
RWRIL

ILLINOIS REGIONAL WEATHER ROUNDUP
NATIONAL WEATHER SERVICE CHICAGO/ROMEOVILLE IL
700 PM CST WED NOV 26 2014

NOTE: "FAIR" INDICATES FEW OR NO CLOUDS BELOW 12,000 FEET WITH NO
SIGNIFICANT WEATHER AND/OR OBSTRUCTIONS TO VISIBILITY.

* THESE STATIONS ARE NOT UNDER NWS QUALITY CONTROL. THEY ALSO MAY NOT
  REPORT WEATHER SUCH AS PRECIPITATION OR FOG.

ILZ001-002-007-009-015-016-024-270200-
NORTHWEST ILLINOIS

CITY           SKY/WX    TMP DP  RH WIND       PRES   REMARKS
MOLINE         CLOUDY    28  22  78 NE10      30.18R WCI  19
$$

ILZ003-004-008-010-011-017-018-270200-
NORTH CENTRAL ILLINOIS

CITY           SKY/WX    TMP DP  RH WIND       PRES   REMARKS
ROCKFORD       NOT AVBL
$$

ILZ005-006-012>014-019>023-270200-
NORTHEAST ILLINOIS

CITY           SKY/WX    TMP DP  RH WIND       PRES   REMARKS
CHICAGO-OHARE  CLOUDY    29  22  75 CALM      30.12S
CHICAGO-MIDWAY CLOUDY    31  22  69 NE6       30.13R WCI  25
AURORA         CLOUDY    25  20  81 W3        30.15R
WAUKEGAN       NOT AVBL
DUPAGE AIRPORT CLOUDY    28  21  75 CALM      30.13R
WHEELING       CLOUDY    29  23  78 N8        30.15R WCI  21
NORTHERLY ISL    N/A     30  22  72 NE12        N/A  WCI  21
$$

LMZ740>746-270200-
SOUTHERN LAKE MICHIGAN

STATION/POSITION SKY/WX   TEMP    WIND        PRES    VSBY  WAVE
                          AIR SEA DIR/SP/G                  HT/PER
                          (F)     (DEG/KT/KT) (MB)    (MI)  (FT/S)
SOUTHERN BUOY              32 42  190/  2/  4 1021.1R         1/ 3
WAUKEGAN HARBOR            28     330/  7/  9   N/A
HARRISON CRIB              30      40/  8/ 12   N/A
BURNHAM HARBOR             30      50/  9/  9   N/A
CALUMET HARBOR             29      30/  5/  7 1018.8S
MICHIGAN CITY              27      70/  6/  8   N/A
$$

ILZ025>027-034>036-040-047-049-050-058-095>099-270200-
WEST-CENTRAL ILLINOIS

CITY           SKY/WX    TMP DP  RH WIND       PRES   REMARKS
$$

ILZ028>032-037-038-041>044-048-051>054-059>061-270200-
CENTRAL ILLINOIS

CITY           SKY/WX    TMP DP  RH WIND       PRES   REMARKS
PEORIA         NOT AVBL
SPRINGFIELD    LGT SNOW  30  28  92 E8        30.09R FOG     WCI  22
TAYLORVILLE    NOT AVBL
$$

ILZ033-039-045-046-055>057-062-063-270200-
EAST-CENTRAL ILLINOIS

CITY           SKY/WX    TMP DP  RH WIND       PRES   REMARKS
CHAMPAIGN      CLOUDY    30  24  78 NE8       30.08S WCI  22
MATTOON        CLOUDY    30  25  81 NE6       30.07R WCI  24
$$

ILZ079-100>102-270200-
SOUTHWEST ILLINOIS

CITY           SKY/WX    TMP DP  RH WIND       PRES   REMARKS
CAHOKIA*       CLOUDY    34  33  96 CALM      30.05S FOG
$$

ILZ064>066-069>071-074>076-080>082-084>086-088>090-092>094-270200-
SOUTH-CENTRAL ILLINOIS

CITY           SKY/WX    TMP DP  RH WIND       PRES   REMARKS
CARBONDALE     CLOUDY    32  31  96 CALM      30.05R FOG
$$

ILZ067-068-072-073-078-083-087-091-270200-
SOUTHEAST ILLINOIS

CITY           SKY/WX    TMP DP  RH WIND       PRES   REMARKS
LAWRENCEVILLE  LGT SNOW  33  31  92 N6        30.08R FOG     WCI  28
$$

ABBREVIATIONS USED IN REMARKS
   TC - TEMPERATURE IN CELSIUS
  WCI - WIND CHILL INDEX
   HX - HEAT INDEX
  VSB - VISIBILITY
$$




USA.gov is the U.S. government's official web portal to all federal, state and local government web resources and services.